Погода в Аджипаяме

Турция     37°25′37″N   29°20′58″E
темп.,
°C
ветер,
м/с
пор.,
м/с
влажн.,
%
обл.,
%
осадки,
мм/ч
давл.,
гПа
погр.,
м
16 мая, вс
вс1600:00+13юз1147100 0.0 101112
03:00+12ю114397 0.0 100911
06:00+9з11534 0.1 100910
09:00+16ю12322 0.1 1009793
12:00+20зюз56255 0.0 10072668
15:00+21зюз88235 0.0 10062756
18:00+19зюз893017 0.0 10062378
21:00+13з465640 0.0 1009135
17 мая, пн
пн1700:00+11сз22711 0.1 1011107
03:00+9сз22810 0.1 101014
06:00+8сз22864 0.0 101112
09:00+14с22615 0.0 1012745
12:00+19ссз23350 0.0 10111526
15:00+22сз45275 0.0 10101940
18:00+21сз4526100 0.0 10101686
21:00+15сз224330 0.0 101311
18 мая, вт
вт1800:00+13з11490 0.0 101311
03:00+12зюз11570 0.0 101311
06:00+11ююз11580 0.0 101310
09:00+19ююв22352 0.0 1013519
12:00+24з34245 0.0 10121829
15:00+26з77220 0.0 10122007
18:00+24з76280 0.0 10121596
21:00+17з22490 0.0 101416
19 мая, ср
ср1900:00+15ю12561 0.0 101411
03:00+13ю12573 0.0 101411
06:00+12ю22540 0.0 101312
09:00+20ююв23320 0.0 1013545
12:00+25юз56180 0.0 10111765
15:00+27зюз77190 0.0 10101996
18:00+24зюз66240 0.0 10101349
21:00+16юз32440 0.0 101219
20 мая, чт
чт2000:00+14ю2251100 0.0 101214
03:00+12ююв22515 0.0 101213
06:00+11ю115194 0.0 101111
09:00+19ююз12250 0.0 1011662
12:00+24зюз56140 0.0 10091795
15:00+25зюз99194 0.0 10082269
18:00+21зсз99384 0.0 10101779
21:00+13сз33681 0.0 101365